"Pseudo-MPEC" for Jxrv1Ih

Created 2025 Apr 19 16:31:06 UT using Find_Orb

Click here for an explanation of pseudo-MPECs

 
 Astrometry: 
     Jxrv1Ih*!C2025 03 29.14995 11 06 18.18 -24 54 11.7    ~3UGV 23.1 iXNEOCPW84
     Jxrv1Ih !C2025 03 29.15346 11 06 17.91 -24 54 10.7    ~3UGV 22.9 iXNEOCPW84
     Jxrv1Ih !C2025 03 29.15703 11 06 17.62 -24 54 09.6    ~3UGV 22.8 iXNEOCPW84
     Jxrv1Ih !C2025 03 29.16409 11 06 17.02 -24 54 07.5    ~3UGV 22.8 iXNEOCPW84
     Jxrv1Ih !C2025 03 29.16760 11 06 16.72 -24 54 06.5    ~3UGV 22.9 rXNEOCPW84
     Jxrv1Ih !C2025 03 29.17286 11 06 16.27 -24 54 04.8    ~3UGV 23.0 rXNEOCPW84
     Jxrv1Ih !C2025 03 29.17815 11 06 15.82 -24 54 03.2    ~3UGV 22.9 rXNEOCPW84
     Jxrv1Ih !C2025 03 29.18510 11 06 15.25 -24 54 01.1    ~3UGV 23.6 gXNEOCPW84
     Jxrv1Ih !C2025 03 29.18861 11 06 14.95 -24 54 00.0    ~3UGV 23.5 gXNEOCPW84
     Jxrv1Ih !C2025 03 29.19213 11 06 14.65 -24 53 59.0    ~3UGV 23.8 gXNEOCPW84

Station data:
(W84) Cerro Tololo-DECam  (S30.169594 W70.806420)  Chile.  Observer F. Valdes.
    Measurer S. Deen. 4.0-m reflector + CCD.

Orbital elements:  Jxrv1Ih
   Perihelion 2024 Oct 5.52166 +/- 324 TT = 12:31:11 (JD 2460589.02166)
Epoch 2025 Mar 29.0 TT = JDT 2460763.5   Earth MOID: 0.3285      AutoNEOCP
M  12.10255356 +/- 70               (J2000 ecliptic)
n   0.06936421 +/- 0.131            Peri.   97.30464 +/- 60
a   5.86649964 +/- 7.36             Node   336.91927 +/- 45
e   0.8423154 +/- 0.25              Incl.   36.31771 +/- 42
P  14.20917                H 19.39  G  0.15   U 11.4  SR
q 0.92505625 +/- 1    Q 10.8079430 +/- 65.3
From 10 observations 2025 Mar. 29 (60.7 min); mean residual 0".10
Residuals in arcseconds: 
250329 W84  .29-  .04+    250329 W84  .06+  .08-    250329 W84  .00   .04+    
250329 W84  .06+  .01-    250329 W84  .05-  .02+    250329 W84  .06-  .03-    
250329 W84  .20+  .01+    250329 W84  .12-  .02+    
250329 W84  .12+  .02-    250329 W84  .07+  .01+    

Ephemerides (geocentric):
Date (UTC) HH   RA             Dec           delta  r     elong  mag " sig PA
---- --------  ------------   ------------  ------ ------ -----  --- --------
2025 04 19 17  10 45 57.530   -22 48 26.56  1.9723 2.7729 134.8 23.9  32d  72
2025 04 19 18  10 45 56.191   -22 48 11.92  1.9730 2.7733 134.7 23.9  32d  72
2025 04 19 19  10 45 54.856   -22 47 57.29  1.9738 2.7737 134.7 23.9  32d  72
2025 04 19 20  10 45 53.525   -22 47 42.66  1.9745 2.7742 134.7 23.9  32d  72
2025 04 19 21  10 45 52.198   -22 47 28.03  1.9752 2.7746 134.6 23.9  32d  72
2025 04 19 22  10 45 50.874   -22 47 13.42  1.9760 2.7750 134.6 23.9  32d  72
2025 04 19 23  10 45 49.553   -22 46 58.81  1.9767 2.7754 134.6 23.9  32d  72
2025 04 20 00  10 45 48.237   -22 46 44.20  1.9774 2.7758 134.5 23.9  32d  72
2025 04 20 01  10 45 46.924   -22 46 29.60  1.9782 2.7762 134.5 23.9  32d  72
2025 04 20 02  10 45 45.614   -22 46 15.01  1.9789 2.7766 134.4 23.9  32d  72
2025 04 20 03  10 45 44.309   -22 46 00.42  1.9797 2.7770 134.4 23.9  32d  72
2025 04 20 04  10 45 43.006   -22 45 45.84  1.9804 2.7774 134.4 23.9  32d  72
2025 04 20 05  10 45 41.708   -22 45 31.27  1.9811 2.7779 134.3 23.9  32d  72
2025 04 20 06  10 45 40.413   -22 45 16.70  1.9819 2.7783 134.3 23.9  32d  72
2025 04 20 07  10 45 39.122   -22 45 02.14  1.9826 2.7787 134.3 23.9  32d  72
2025 04 20 08  10 45 37.834   -22 44 47.58  1.9834 2.7791 134.2 23.9  32d  72
2025 04 20 09  10 45 36.550   -22 44 33.03  1.9841 2.7795 134.2 23.9  32d  72
2025 04 20 10  10 45 35.270   -22 44 18.49  1.9848 2.7799 134.2 23.9  32d  72
2025 04 20 11  10 45 33.993   -22 44 03.95  1.9856 2.7803 134.1 23.9  32d  72
2025 04 20 12  10 45 32.720   -22 43 49.42  1.9863 2.7807 134.1 23.9  32d  72
2025 04 20 13  10 45 31.450   -22 43 34.89  1.9871 2.7811 134.1 23.9  32d  72
2025 04 20 14  10 45 30.184   -22 43 20.37  1.9878 2.7816 134.0 23.9  32d  72
2025 04 20 15  10 45 28.922   -22 43 05.86  1.9886 2.7820 134.0 23.9  32d  72
2025 04 20 16  10 45 27.663   -22 42 51.35  1.9893 2.7824 134.0 23.9  32d  72
2025 04 20 17  10 45 26.408   -22 42 36.86  1.9900 2.7828 133.9 23.9  32d  72
2025 04 20 18  10 45 25.157   -22 42 22.36  1.9908 2.7832 133.9 23.9  32d  72
2025 04 20 19  10 45 23.909   -22 42 07.88  1.9915 2.7836 133.9 23.9  32d  72
2025 04 20 20  10 45 22.665   -22 41 53.40  1.9923 2.7840 133.8 23.9  32d  72
2025 04 20 21  10 45 21.424   -22 41 38.92  1.9930 2.7844 133.8 23.9  32d  72
2025 04 20 22  10 45 20.187   -22 41 24.45  1.9938 2.7848 133.7 23.9  32d  72
2025 04 20 23  10 45 18.953   -22 41 09.99  1.9945 2.7852 133.7 23.9  32d  72
2025 04 21 00  10 45 17.723   -22 40 55.54  1.9953 2.7857 133.7 24.0  32d  72
2025 04 21 01  10 45 16.497   -22 40 41.09  1.9960 2.7861 133.6 24.0  32d  72
2025 04 21 02  10 45 15.274   -22 40 26.65  1.9967 2.7865 133.6 24.0  32d  72
2025 04 21 03  10 45 14.055   -22 40 12.22  1.9975 2.7869 133.6 24.0  32d  72
2025 04 21 04  10 45 12.839   -22 39 57.79  1.9982 2.7873 133.5 24.0  32d  72
2025 04 21 05  10 45 11.627   -22 39 43.37  1.9990 2.7877 133.5 24.0  32d  72
2025 04 21 06  10 45 10.419   -22 39 28.96  1.9997 2.7881 133.5 24.0  32d  72
2025 04 21 07  10 45 09.214   -22 39 14.55  2.0005 2.7885 133.4 24.0  32d  72
2025 04 21 08  10 45 08.012   -22 39 00.15  2.0012 2.7889 133.4 24.0  32d  72
2025 04 21 09  10 45 06.815   -22 38 45.76  2.0020 2.7893 133.4 24.0  32d  72
2025 04 21 10  10 45 05.620   -22 38 31.37  2.0027 2.7898 133.3 24.0  32d  72
2025 04 21 11  10 45 04.430   -22 38 16.99  2.0035 2.7902 133.3 24.0  32d  72
2025 04 21 12  10 45 03.243   -22 38 02.62  2.0042 2.7906 133.3 24.0  32d  72
2025 04 21 13  10 45 02.059   -22 37 48.25  2.0050 2.7910 133.2 24.0  32d  72
2025 04 21 14  10 45 00.879   -22 37 33.89  2.0057 2.7914 133.2 24.0  32d  72
2025 04 21 15  10 44 59.703   -22 37 19.54  2.0065 2.7918 133.1 24.0  32d  72
2025 04 21 16  10 44 58.530   -22 37 05.20  2.0072 2.7922 133.1 24.0  32d  72